Time,TemperatureF,DewpointF,PressureIn,WindDirection,WindDirectionDegrees,WindSpeedMPH,WindSpeedGustMPH,Humidity,HourlyPrecipIn,Conditions,Clouds,dailyrainin,SoftwareType,DateUTC
2013-03-22 00:00:00,29.8,15.6,29.79,West,268,13.0,22.0,55,0.00,,---,0.01,VWS V14.01,2013-03-22 04:00:00,
2013-03-22 00:02:00,29.8,15.2,29.78,WSW,258,18.0,18.0,54,0.00,,---,0.00,VWS V14.01,2013-03-22 04:02:00,
2013-03-22 00:07:00,29.7,15.1,29.78,WNW,285,15.0,20.0,54,0.00,,---,0.00,VWS V14.01,2013-03-22 04:07:00,
2013-03-22 00:12:00,29.7,14.7,29.79,West,266,12.0,21.0,53,0.00,,---,0.00,VWS V14.01,2013-03-22 04:12:00,
2013-03-22 00:17:00,29.7,14.7,29.79,West,272,10.0,21.0,53,0.00,,---,0.00,VWS V14.01,2013-03-22 04:17:00,
2013-03-22 00:22:00,29.6,15.0,29.79,West,270,15.0,21.0,54,0.00,,---,0.00,VWS V14.01,2013-03-22 04:22:00,
2013-03-22 00:27:00,29.5,14.5,29.79,West,269,8.0,21.0,53,0.00,,---,0.00,VWS V14.01,2013-03-22 04:27:00,
2013-03-22 00:30:00,29.5,15.3,29.79,West,263,10.0,21.0,55,0.00,,---,0.00,VWS V14.01,2013-03-22 04:30:00,
2013-03-22 00:32:00,29.4,14.8,29.79,West,275,10.0,15.0,54,0.00,,---,0.00,VWS V14.01,2013-03-22 04:32:00,
2013-03-22 00:37:00,29.4,14.8,29.79,WSW,247,10.0,17.0,54,0.00,,---,0.00,VWS V14.01,2013-03-22 04:37:00,
2013-03-22 00:42:00,29.4,15.2,29.79,West,270,11.0,17.0,55,0.00,,---,0.00,VWS V14.01,2013-03-22 04:42:00,
2013-03-22 00:47:00,29.4,15.2,29.80,West,266,11.0,17.0,55,0.00,,---,0.00,VWS V14.01,2013-03-22 04:47:00,
2013-03-22 00:52:00,29.3,15.1,29.80,WSW,248,11.0,18.0,55,0.00,,---,0.00,VWS V14.01,2013-03-22 04:52:00,
2013-03-22 00:57:00,29.3,15.1,29.80,West,274,13.0,18.0,55,0.00,,---,0.00,VWS V14.01,2013-03-22 04:57:00,
2013-03-22 01:00:00,29.3,15.6,29.80,West,265,6.0,18.0,56,0.00,,---,0.00,VWS V14.01,2013-03-22 05:00:00,
2013-03-22 01:02:00,29.3,15.6,29.80,West,264,13.0,14.0,56,0.00,,---,0.00,VWS V14.01,2013-03-22 05:02:00,
2013-03-22 01:07:00,29.3,15.6,29.80,WNW,297,7.0,16.0,56,0.00,,---,0.00,VWS V14.01,2013-03-22 05:07:00,
2013-03-22 01:12:00,29.3,15.6,29.80,WNW,287,10.0,17.0,56,0.00,,---,0.00,VWS V14.01,2013-03-22 05:12:00,
2013-03-22 01:17:00,29.3,15.1,29.80,West,276,6.0,18.0,55,0.00,,---,0.00,VWS V14.01,2013-03-22 05:17:00,
2013-03-22 01:22:00,29.3,15.6,29.80,WSW,238,9.0,18.0,56,0.00,,---,0.00,VWS V14.01,2013-03-22 05:22:00,
2013-03-22 01:27:00,29.2,15.1,29.80,WNW,288,8.0,19.0,55,0.00,,---,0.00,VWS V14.01,2013-03-22 05:27:00,
2013-03-22 01:30:00,29.2,15.5,29.80,West,267,16.0,19.0,56,0.00,,---,0.00,VWS V14.01,2013-03-22 05:30:00,
2013-03-22 01:32:00,29.2,15.1,29.80,WNW,298,8.0,18.0,55,0.00,,---,0.00,VWS V14.01,2013-03-22 05:32:00,
2013-03-22 01:37:00,29.1,15.4,29.80,West,259,11.0,18.0,56,0.00,,---,0.00,VWS V14.01,2013-03-22 05:37:00,
2013-03-22 01:42:00,29.1,15.8,29.80,WSW,257,9.0,18.0,57,0.00,,---,0.00,VWS V14.01,2013-03-22 05:42:00,
2013-03-22 01:47:00,29.1,15.8,29.80,WSW,246,13.0,18.0,57,0.00,,---,0.00,VWS V14.01,2013-03-22 05:47:00,
2013-03-22 01:52:00,29.0,15.7,29.80,West,280,9.0,18.0,57,0.00,,---,0.00,VWS V14.01,2013-03-22 05:52:00,
2013-03-22 01:57:00,29.0,15.7,29.80,SW,226,10.0,18.0,57,0.00,,---,0.00,VWS V14.01,2013-03-22 05:57:00,
2013-03-22 02:00:00,29.0,15.7,29.80,NW,321,13.0,18.0,57,0.00,,---,0.00,VWS V14.01,2013-03-22 06:00:00,
2013-03-22 02:02:00,29.0,15.7,29.80,WSW,257,12.0,15.0,57,0.00,,---,0.00,VWS V14.01,2013-03-22 06:02:00,
2013-03-22 02:07:00,28.9,16.0,29.80,West,278,17.0,17.0,58,0.00,,---,0.00,VWS V14.01,2013-03-22 06:07:00,
2013-03-22 02:12:00,28.9,16.0,29.80,West,277,10.0,18.0,58,0.00,,---,0.00,VWS V14.01,2013-03-22 06:12:00,
2013-03-22 02:17:00,28.9,16.4,29.80,South,186,3.0,18.0,59,0.00,,---,0.00,VWS V14.01,2013-03-22 06:17:00,
2013-03-22 02:22:00,28.9,16.0,29.80,NW,317,9.0,18.0,58,0.00,,---,0.00,VWS V14.01,2013-03-22 06:22:00,
2013-03-22 02:28:00,28.9,16.0,29.80,West,263,8.0,18.0,58,0.00,,---,0.00,VWS V14.01,2013-03-22 06:28:00,
2013-03-22 02:30:00,28.9,15.6,29.80,West,269,9.0,18.0,57,0.00,,---,0.00,VWS V14.01,2013-03-22 06:30:00,
2013-03-22 02:32:00,28.9,16.0,29.80,West,278,16.0,18.0,58,0.00,,---,0.00,VWS V14.01,2013-03-22 06:32:00,
2013-03-22 02:38:00,28.9,16.4,29.80,West,264,13.0,19.0,59,0.00,,---,0.00,VWS V14.01,2013-03-22 06:38:00,
2013-03-22 02:43:00,28.9,16.4,29.80,WNW,293,9.0,19.0,59,0.00,,---,0.00,VWS V14.01,2013-03-22 06:43:00,
2013-03-22 02:48:00,28.8,16.3,29.80,WSW,245,13.0,19.0,59,0.00,,---,0.00,VWS V14.01,2013-03-22 06:48:00,
2013-03-22 02:53:00,28.8,16.7,29.80,WNW,285,7.0,19.0,60,0.00,,---,0.00,VWS V14.01,2013-03-22 06:53:00,
2013-03-22 02:58:00,28.8,16.7,29.80,NW,318,5.0,19.0,60,0.00,,---,0.00,VWS V14.01,2013-03-22 06:58:00,
2013-03-22 03:00:00,28.8,17.1,29.80,NW,306,7.0,19.0,61,0.00,,---,0.00,VWS V14.01,2013-03-22 07:00:00,
2013-03-22 03:03:00,28.8,17.1,29.80,West,269,11.0,14.0,61,0.00,,---,0.00,VWS V14.01,2013-03-22 07:03:00,
2013-03-22 03:08:00,28.8,17.4,29.80,West,263,12.0,14.0,62,0.00,,---,0.00,VWS V14.01,2013-03-22 07:08:00,
2013-03-22 03:13:00,28.9,17.5,29.80,WSW,248,5.0,15.0,62,0.00,,---,0.00,VWS V14.01,2013-03-22 07:13:00,
2013-03-22 03:18:00,28.9,17.5,29.80,West,274,8.0,15.0,62,0.00,,---,0.00,VWS V14.01,2013-03-22 07:18:00,
2013-03-22 03:23:00,28.9,17.5,29.80,West,264,14.0,15.0,62,0.00,,---,0.00,VWS V14.01,2013-03-22 07:23:00,
2013-03-22 03:28:00,28.9,17.9,29.80,WNW,285,7.0,15.0,63,0.00,,---,0.00,VWS V14.01,2013-03-22 07:28:00,
2013-03-22 03:30:00,28.9,17.9,29.80,West,265,8.0,15.0,63,0.00,,---,0.00,VWS V14.01,2013-03-22 07:30:00,
2013-03-22 03:33:00,28.8,17.8,29.80,WNW,285,12.0,14.0,63,0.00,,---,0.00,VWS V14.01,2013-03-22 07:33:00,
2013-03-22 03:38:00,29.0,18.0,29.80,SW,223,9.0,16.0,63,0.00,,---,0.00,VWS V14.01,2013-03-22 07:38:00,
2013-03-22 03:43:00,29.0,17.6,29.80,West,274,9.0,16.0,62,0.00,,---,0.00,VWS V14.01,2013-03-22 07:43:00,
2013-03-22 03:48:00,29.0,16.9,29.80,West,276,6.0,16.0,60,0.00,,---,0.00,VWS V14.01,2013-03-22 07:48:00,
2013-03-22 03:53:00,29.1,17.7,29.80,SW,232,11.0,16.0,62,0.00,,---,0.00,VWS V14.01,2013-03-22 07:53:00,
2013-03-22 03:58:00,29.0,17.2,29.80,SW,232,8.0,16.0,61,0.00,,---,0.00,VWS V14.01,2013-03-22 07:58:00,
2013-03-22 04:00:00,29.0,17.6,29.80,SW,234,9.0,16.0,62,0.00,,---,0.00,VWS V14.01,2013-03-22 08:00:00,
2013-03-22 04:03:00,28.8,17.4,29.80,SW,222,9.0,13.0,62,0.00,,---,0.00,VWS V14.01,2013-03-22 08:03:00,
2013-03-22 04:08:00,28.5,16.8,29.80,WSW,244,9.0,16.0,61,0.00,,---,0.00,VWS V14.01,2013-03-22 08:08:00,
2013-03-22 04:13:00,28.4,17.4,29.80,SW,231,13.0,16.0,63,0.00,,---,0.00,VWS V14.01,2013-03-22 08:13:00,
2013-03-22 04:18:00,28.4,17.8,29.80,SW,222,12.0,16.0,64,0.00,,---,0.00,VWS V14.01,2013-03-22 08:18:00,
2013-03-22 04:23:00,28.3,17.7,29.80,SW,216,9.0,16.0,64,0.00,,---,0.00,VWS V14.01,2013-03-22 08:23:00,
2013-03-22 04:28:00,28.3,17.3,29.80,SW,224,11.0,16.0,63,0.00,,---,0.00,VWS V14.01,2013-03-22 08:28:00,
2013-03-22 04:30:00,28.2,17.6,29.80,SW,224,8.0,17.0,64,0.00,,---,0.00,VWS V14.01,2013-03-22 08:30:00,
2013-03-22 04:33:00,28.3,18.1,29.80,WSW,240,13.0,15.0,65,0.00,,---,0.00,VWS V14.01,2013-03-22 08:33:00,
2013-03-22 04:38:00,28.2,18.0,29.80,WSW,237,12.0,18.0,65,0.00,,---,0.00,VWS V14.01,2013-03-22 08:38:00,
2013-03-22 04:43:00,28.3,17.7,29.80,SW,217,10.0,20.0,64,0.00,,---,0.00,VWS V14.01,2013-03-22 08:43:00,
2013-03-22 04:48:00,28.2,17.6,29.80,SSW,194,7.0,20.0,64,0.00,,---,0.00,VWS V14.01,2013-03-22 08:48:00,
2013-03-22 04:53:00,28.2,17.6,29.80,West,259,13.0,20.0,64,0.00,,---,0.00,VWS V14.01,2013-03-22 08:53:00,
2013-03-22 04:58:00,28.2,18.0,29.80,SW,215,16.0,20.0,65,0.00,,---,0.00,VWS V14.01,2013-03-22 08:58:00,
2013-03-22 05:00:00,28.3,17.7,29.80,South,173,8.0,20.0,64,0.00,,---,0.00,VWS V14.01,2013-03-22 09:00:00,
2013-03-22 05:03:00,28.3,17.7,29.80,West,264,13.0,19.0,64,0.00,,---,0.00,VWS V14.01,2013-03-22 09:03:00,
2013-03-22 05:08:00,28.3,18.1,29.80,SSW,205,14.0,19.0,65,0.00,,---,0.00,VWS V14.01,2013-03-22 09:08:00,
2013-03-22 05:13:00,28.5,17.5,29.80,WSW,241,11.0,19.0,63,0.00,,---,0.00,VWS V14.01,2013-03-22 09:13:00,
2013-03-22 05:18:00,28.5,18.2,29.81,WSW,252,13.0,19.0,65,0.00,,---,0.00,VWS V14.01,2013-03-22 09:18:00,
2013-03-22 05:23:00,28.6,18.0,29.81,WSW,246,7.0,20.0,64,0.00,,---,0.00,VWS V14.01,2013-03-22 09:23:00,
2013-03-22 05:28:00,28.6,18.3,29.81,WSW,248,10.0,20.0,65,0.00,,---,0.00,VWS V14.01,2013-03-22 09:28:00,
2013-03-22 05:30:00,28.6,18.7,29.81,WSW,245,9.0,20.0,66,0.00,,---,0.00,VWS V14.01,2013-03-22 09:30:00,
2013-03-22 05:33:00,28.5,18.2,29.81,West,274,8.0,15.0,65,0.00,,---,0.00,VWS V14.01,2013-03-22 09:33:00,
2013-03-22 05:38:00,28.6,18.0,29.81,South,169,9.0,19.0,64,0.00,,---,0.00,VWS V14.01,2013-03-22 09:38:00,
2013-03-22 05:43:00,28.6,18.3,29.81,SW,226,11.0,21.0,65,0.00,,---,0.00,VWS V14.01,2013-03-22 09:43:00,
2013-03-22 05:48:00,28.6,18.0,29.81,West,264,10.0,21.0,64,0.00,,---,0.00,VWS V14.01,2013-03-22 09:48:00,
2013-03-22 05:53:00,28.7,18.8,29.81,WSW,238,9.0,21.0,66,0.00,,---,0.00,VWS V14.01,2013-03-22 09:53:00,
2013-03-22 05:58:00,28.6,18.3,29.82,SW,233,17.0,21.0,65,0.00,,---,0.00,VWS V14.01,2013-03-22 09:58:00,
2013-03-22 06:00:00,28.6,18.3,29.81,WSW,257,12.0,21.0,65,0.00,,---,0.00,VWS V14.01,2013-03-22 10:00:00,
2013-03-22 06:03:00,28.7,18.8,29.82,SW,233,13.0,17.0,66,0.00,,---,0.00,VWS V14.01,2013-03-22 10:03:00,
2013-03-22 06:08:00,28.8,18.5,29.81,WSW,253,14.0,19.0,65,0.00,,---,0.00,VWS V14.01,2013-03-22 10:08:00,
2013-03-22 06:13:00,28.8,18.5,29.82,WSW,256,8.0,19.0,65,0.00,,---,0.00,VWS V14.01,2013-03-22 10:13:00,
2013-03-22 06:18:00,28.8,18.9,29.82,SW,229,13.0,19.0,66,0.00,,---,0.00,VWS V14.01,2013-03-22 10:18:00,
2013-03-22 06:23:00,28.7,19.1,29.82,NW,307,8.0,19.0,67,0.00,,---,0.00,VWS V14.01,2013-03-22 10:23:00,
2013-03-22 06:28:00,28.7,19.5,29.82,SW,233,6.0,19.0,68,0.00,,---,0.00,VWS V14.01,2013-03-22 10:28:00,
2013-03-22 06:30:00,28.7,19.5,29.82,WSW,245,10.0,19.0,68,0.00,,---,0.00,VWS V14.01,2013-03-22 10:30:00,
2013-03-22 06:33:00,28.7,19.5,29.82,SSW,200,7.0,13.0,68,0.00,,---,0.00,VWS V14.01,2013-03-22 10:33:00,
2013-03-22 06:38:00,28.8,19.2,29.82,NW,309,7.0,17.0,67,0.00,,---,0.00,VWS V14.01,2013-03-22 10:38:00,
2013-03-22 06:43:00,28.7,19.5,29.82,WSW,257,7.0,17.0,68,0.00,,---,0.00,VWS V14.01,2013-03-22 10:43:00,
2013-03-22 06:48:00,28.8,19.9,29.83,WNW,286,10.0,17.0,69,0.00,,---,0.00,VWS V14.01,2013-03-22 10:48:00,
2013-03-22 06:53:00,28.9,19.7,29.83,West,271,9.0,17.0,68,0.00,,---,0.00,VWS V14.01,2013-03-22 10:53:00,
2013-03-22 06:58:00,29.0,19.4,29.83,WSW,255,8.0,17.0,67,0.00,,---,0.00,VWS V14.01,2013-03-22 10:58:00,
2013-03-22 07:00:00,29.0,19.8,29.83,West,262,5.0,17.0,68,0.00,,---,0.00,VWS V14.01,2013-03-22 11:00:00,
2013-03-22 07:03:00,29.0,19.8,29.83,WNW,282,9.0,16.0,68,0.00,,---,0.00,VWS V14.01,2013-03-22 11:03:00,
2013-03-22 07:08:00,29.3,19.7,29.83,West,267,7.0,17.0,67,0.00,,---,0.00,VWS V14.01,2013-03-22 11:08:00,
2013-03-22 07:13:00,29.5,19.9,29.83,NW,320,7.0,19.0,67,0.00,,---,0.00,VWS V14.01,2013-03-22 11:13:00,
2013-03-22 07:18:00,29.7,20.5,29.83,West,274,11.0,19.0,68,0.00,,---,0.00,VWS V14.01,2013-03-22 11:18:00,
2013-03-22 07:23:00,29.9,20.3,29.84,WSW,238,11.0,19.0,67,0.00,,---,0.00,VWS V14.01,2013-03-22 11:23:00,
2013-03-22 07:28:00,29.7,19.8,29.84,SSW,212,12.0,19.0,66,0.00,,---,0.00,VWS V14.01,2013-03-22 11:28:00,
2013-03-22 07:30:00,29.6,19.6,29.84,SW,231,8.0,21.0,66,0.00,,---,0.00,VWS V14.01,2013-03-22 11:30:00,
2013-03-22 07:33:00,29.5,20.3,29.84,WSW,240,9.0,15.0,68,0.00,,---,0.00,VWS V14.01,2013-03-22 11:33:00,
2013-03-22 07:38:00,29.7,20.1,29.84,North,1,5.0,19.0,67,0.00,,---,0.00,VWS V14.01,2013-03-22 11:38:00,
2013-03-22 07:43:00,30.1,20.5,29.84,SW,227,13.0,21.0,67,0.00,,---,0.00,VWS V14.01,2013-03-22 11:43:00,
2013-03-22 07:48:00,30.3,20.3,29.84,SSW,213,10.0,21.0,66,0.00,,---,0.00,VWS V14.01,2013-03-22 11:48:00,
2013-03-22 07:53:00,30.4,20.4,29.85,WSW,257,12.0,23.0,66,0.00,,---,0.00,VWS V14.01,2013-03-22 11:53:00,
2013-03-22 07:58:00,30.6,20.2,29.85,SW,222,14.0,23.0,65,0.00,,---,0.00,VWS V14.01,2013-03-22 11:58:00,
2013-03-22 08:00:00,30.7,20.3,29.85,WSW,252,6.0,23.0,65,0.00,,---,0.00,VWS V14.01,2013-03-22 12:00:00,
2013-03-22 08:03:00,30.7,20.0,29.85,NW,316,13.0,25.0,64,0.00,,---,0.00,VWS V14.01,2013-03-22 12:03:00,
2013-03-22 08:08:00,31.0,20.6,29.85,WSW,257,9.0,25.0,65,0.00,,---,0.00,VWS V14.01,2013-03-22 12:08:00,
2013-03-22 08:13:00,31.2,20.5,29.85,West,269,11.0,25.0,64,0.00,,---,0.00,VWS V14.01,2013-03-22 12:13:00,
2013-03-22 08:18:00,31.3,20.5,29.85,NE,52,10.0,25.0,64,0.00,,---,0.00,VWS V14.01,2013-03-22 12:18:00,
2013-03-22 08:23:00,31.5,20.4,29.85,West,262,8.0,25.0,63,0.00,,---,0.00,VWS V14.01,2013-03-22 12:23:00,
2013-03-22 08:28:00,31.7,20.6,29.85,WSW,248,16.0,25.0,63,0.00,,---,0.00,VWS V14.01,2013-03-22 12:28:00,
2013-03-22 08:30:00,31.8,20.7,29.85,SW,226,12.0,25.0,63,0.00,,---,0.00,VWS V14.01,2013-03-22 12:30:00,
2013-03-22 08:33:00,31.7,20.2,29.86,WSW,252,10.0,20.0,62,0.00,,---,0.00,VWS V14.01,2013-03-22 12:33:00,
2013-03-22 08:38:00,32.0,21.2,29.86,WNW,283,8.0,23.0,64,0.00,,---,0.00,VWS V14.01,2013-03-22 12:38:00,
2013-03-22 08:43:00,32.4,21.2,29.86,WNW,283,16.0,23.0,63,0.00,,---,0.00,VWS V14.01,2013-03-22 12:43:00,
2013-03-22 08:49:00,32.5,20.9,29.86,SW,224,6.0,23.0,62,0.00,,---,0.00,VWS V14.01,2013-03-22 12:49:00,
2013-03-22 08:53:00,32.8,20.9,29.86,SW,219,11.0,23.0,61,0.00,,---,0.00,VWS V14.01,2013-03-22 12:53:00,
2013-03-22 08:59:00,33.1,20.7,29.86,WSW,249,13.0,23.0,60,0.00,,---,0.00,VWS V14.01,2013-03-22 12:59:00,
2013-03-22 09:00:00,33.2,21.2,29.86,WSW,252,12.0,23.0,61,0.00,,---,0.00,VWS V14.01,2013-03-22 13:00:00,
2013-03-22 09:04:00,33.3,21.3,29.86,West,274,19.0,22.0,61,0.00,,---,0.00,VWS V14.01,2013-03-22 13:04:00,
2013-03-22 09:09:00,33.5,21.9,29.86,WNW,300,11.0,22.0,62,0.00,,---,0.00,VWS V14.01,2013-03-22 13:09:00,
2013-03-22 09:14:00,33.8,21.8,29.86,WSW,253,12.0,22.0,61,0.00,,---,0.00,VWS V14.01,2013-03-22 13:14:00,
2013-03-22 09:19:00,33.9,20.7,29.86,WSW,243,20.0,22.0,58,0.00,,---,0.00,VWS V14.01,2013-03-22 13:19:00,
2013-03-22 09:24:00,34.3,21.5,29.86,West,264,23.0,25.0,59,0.00,,---,0.00,VWS V14.01,2013-03-22 13:24:00,
2013-03-22 09:29:00,34.7,21.5,29.86,West,269,9.0,25.0,58,0.00,,---,0.00,VWS V14.01,2013-03-22 13:29:00,
2013-03-22 09:30:00,34.9,22.0,29.86,WNW,301,12.0,25.0,59,0.00,,---,0.00,VWS V14.01,2013-03-22 13:30:00,
2013-03-22 09:34:00,34.8,21.1,29.86,West,270,12.0,22.0,57,0.00,,---,0.00,VWS V14.01,2013-03-22 13:34:00,
2013-03-22 09:39:00,35.1,21.8,29.86,WSW,252,21.0,26.0,58,0.00,,---,0.00,VWS V14.01,2013-03-22 13:39:00,
2013-03-22 09:44:00,35.0,20.5,29.86,WSW,248,16.0,26.0,55,0.00,,---,0.00,VWS V14.01,2013-03-22 13:44:00,
2013-03-22 09:49:00,35.3,21.2,29.86,West,278,20.0,26.0,56,0.00,,---,0.00,VWS V14.01,2013-03-22 13:49:00,
2013-03-22 09:54:00,35.6,21.5,29.86,West,270,19.0,26.0,56,0.00,,---,0.00,VWS V14.01,2013-03-22 13:54:00,
2013-03-22 09:59:00,35.7,19.8,29.86,WNW,296,15.0,26.0,52,0.00,,---,0.00,VWS V14.01,2013-03-22 13:59:00,
2013-03-22 10:00:00,35.7,19.8,29.86,SW,230,18.0,26.0,52,0.00,,---,0.00,VWS V14.01,2013-03-22 14:00:00,
2013-03-22 10:04:00,35.6,19.7,29.86,West,275,11.0,30.0,52,0.00,,---,0.00,VWS V14.01,2013-03-22 14:04:00,
2013-03-22 10:09:00,35.7,18.9,29.86,WSW,256,23.0,30.0,50,0.00,,---,0.00,VWS V14.01,2013-03-22 14:09:00,
2013-03-22 10:14:00,36.1,20.6,29.86,West,272,18.0,30.0,53,0.00,,---,0.00,VWS V14.01,2013-03-22 14:14:00,
2013-03-22 10:19:00,36.7,21.6,29.86,WNW,295,16.0,30.0,54,0.00,,---,0.00,VWS V14.01,2013-03-22 14:19:00,
2013-03-22 10:24:00,36.9,20.9,29.86,West,259,19.0,30.0,52,0.00,,---,0.00,VWS V14.01,2013-03-22 14:24:00,
2013-03-22 10:29:00,36.4,20.5,29.86,West,281,12.0,30.0,52,0.00,,---,0.00,VWS V14.01,2013-03-22 14:29:00,
2013-03-22 10:30:00,36.3,20.8,29.86,WNW,285,14.0,30.0,53,0.00,,---,0.00,VWS V14.01,2013-03-22 14:30:00,
2013-03-22 10:34:00,36.4,21.4,29.86,WNW,286,10.0,28.0,54,0.00,,---,0.00,VWS V14.01,2013-03-22 14:34:00,
2013-03-22 10:39:00,36.5,20.1,29.86,West,259,16.0,32.0,51,0.00,,---,0.00,VWS V14.01,2013-03-22 14:39:00,
2013-03-22 10:44:00,36.9,20.9,29.86,West,259,18.0,32.0,52,0.00,,---,0.00,VWS V14.01,2013-03-22 14:44:00,
2013-03-22 10:49:00,37.3,20.9,29.85,West,273,13.0,32.0,51,0.00,,---,0.00,VWS V14.01,2013-03-22 14:49:00,
2013-03-22 10:54:00,37.6,20.2,29.85,WNW,289,14.0,32.0,49,0.00,,---,0.00,VWS V14.01,2013-03-22 14:54:00,
2013-03-22 10:59:00,37.8,19.4,29.86,WNW,302,15.0,32.0,47,0.00,,---,0.00,VWS V14.01,2013-03-22 14:59:00,
2013-03-22 11:00:00,37.8,19.9,29.86,West,260,22.0,32.0,48,0.00,,---,0.00,VWS V14.01,2013-03-22 15:00:00,
2013-03-22 11:04:00,38.1,19.2,29.85,West,271,16.0,30.0,46,0.00,,---,0.00,VWS V14.01,2013-03-22 15:04:00,
2013-03-22 11:09:00,38.5,20.0,29.85,West,271,18.0,30.0,47,0.00,,---,0.00,VWS V14.01,2013-03-22 15:09:00,
2013-03-22 11:14:00,38.2,20.7,29.85,NW,321,15.0,30.0,49,0.00,,---,0.00,VWS V14.01,2013-03-22 15:14:00,
2013-03-22 11:19:00,38.4,20.4,29.85,SW,214,15.0,30.0,48,0.00,,---,0.00,VWS V14.01,2013-03-22 15:19:00,
2013-03-22 11:24:00,38.2,20.7,29.85,West,261,17.0,30.0,49,0.00,,---,0.00,VWS V14.01,2013-03-22 15:24:00,
2013-03-22 11:29:00,37.7,20.8,29.85,WNW,296,13.0,30.0,50,0.00,,---,0.00,VWS V14.01,2013-03-22 15:29:00,
2013-03-22 11:30:00,37.6,20.7,29.85,West,281,16.0,30.0,50,0.00,,---,0.00,VWS V14.01,2013-03-22 15:30:00,
2013-03-22 11:34:00,37.5,21.5,29.85,West,266,19.0,25.0,52,0.00,,---,0.00,VWS V14.01,2013-03-22 15:34:00,
2013-03-22 11:39:00,37.9,20.0,29.85,SW,226,20.0,28.0,48,0.00,,---,0.00,VWS V14.01,2013-03-22 15:39:00,
2013-03-22 11:44:00,38.4,20.4,29.85,NW,320,10.0,28.0,48,0.00,,---,0.00,VWS V14.01,2013-03-22 15:44:00,
2013-03-22 11:49:00,38.5,20.5,29.85,West,275,16.0,28.0,48,0.00,,---,0.00,VWS V14.01,2013-03-22 15:49:00,
2013-03-22 11:54:00,38.7,20.2,29.84,North,5,14.0,29.0,47,0.00,,---,0.00,VWS V14.01,2013-03-22 15:54:00,
2013-03-22 11:59:00,38.9,20.4,29.85,WNW,300,26.0,29.0,47,0.00,,---,0.00,VWS V14.01,2013-03-22 15:59:00,
2013-03-22 12:00:00,38.9,20.4,29.85,WNW,294,21.0,29.0,47,0.00,,---,0.00,VWS V14.01,2013-03-22 16:00:00,
2013-03-22 12:04:00,38.8,20.8,29.85,West,262,17.0,25.0,48,0.00,,---,0.00,VWS V14.01,2013-03-22 16:04:00,
2013-03-22 12:09:00,37.9,20.5,29.85,WSW,254,22.0,27.0,49,0.00,,---,0.00,VWS V14.01,2013-03-22 16:09:00,
2013-03-22 12:14:00,37.9,21.4,29.85,West,267,21.0,27.0,51,0.00,,---,0.00,VWS V14.01,2013-03-22 16:14:00,
2013-03-22 12:19:00,38.1,20.6,29.85,NE,38,17.0,27.0,49,0.00,,---,0.00,VWS V14.01,2013-03-22 16:19:00,
2013-03-22 12:24:00,38.0,22.0,29.85,West,266,13.0,27.0,52,0.00,,---,0.00,VWS V14.01,2013-03-22 16:24:00,
2013-03-22 12:29:00,38.3,20.8,29.85,NW,312,15.0,27.0,49,0.00,,---,0.00,VWS V14.01,2013-03-22 16:29:00,
2013-03-22 12:30:00,38.3,20.8,29.85,NW,319,16.0,27.0,49,0.00,,---,0.00,VWS V14.01,2013-03-22 16:30:00,
2013-03-22 12:34:00,38.0,20.5,29.85,WNW,290,10.0,27.0,49,0.00,,---,0.00,VWS V14.01,2013-03-22 16:34:00,
2013-03-22 12:39:00,37.8,19.9,29.85,West,277,23.0,28.0,48,0.00,,---,0.00,VWS V14.01,2013-03-22 16:39:00,
2013-03-22 12:44:00,37.6,20.2,29.85,West,279,17.0,28.0,49,0.00,,---,0.00,VWS V14.01,2013-03-22 16:44:00,
2013-03-22 12:49:00,38.0,21.5,29.85,West,276,6.0,28.0,51,0.00,,---,0.00,VWS V14.01,2013-03-22 16:49:00,
2013-03-22 12:54:00,38.0,20.5,29.85,NNW,345,6.0,28.0,49,0.00,,---,0.00,VWS V14.01,2013-03-22 16:54:00,
2013-03-22 13:00:00,37.5,21.9,29.86,West,281,12.0,29.0,53,0.00,,---,0.00,VWS V14.01,2013-03-22 17:00:00,
2013-03-22 13:05:00,37.3,21.8,29.85,West,267,15.0,22.0,53,0.00,,---,0.00,VWS V14.01,2013-03-22 17:05:00,
2013-03-22 13:10:00,37.5,21.9,29.85,SW,228,9.0,24.0,53,0.00,,---,0.00,VWS V14.01,2013-03-22 17:10:00,
2013-03-22 13:15:00,38.1,21.1,29.85,West,262,10.0,25.0,50,0.00,,---,0.00,VWS V14.01,2013-03-22 17:15:00,
2013-03-22 13:20:00,38.3,20.4,29.85,NW,304,13.0,25.0,48,0.00,,---,0.00,VWS V14.01,2013-03-22 17:20:00,
2013-03-22 13:25:00,38.2,20.7,29.85,WNW,286,12.0,25.0,49,0.00,,---,0.00,VWS V14.01,2013-03-22 17:25:00,
2013-03-22 13:30:00,38.1,22.0,29.84,West,264,14.0,25.0,52,0.00,,---,0.00,VWS V14.01,2013-03-22 17:30:00,
2013-03-22 13:35:00,37.9,22.8,29.85,WNW,292,14.0,21.0,54,0.00,,---,0.00,VWS V14.01,2013-03-22 17:35:00,
2013-03-22 13:40:00,37.9,22.3,29.84,West,266,10.0,21.0,53,0.00,,---,0.00,VWS V14.01,2013-03-22 17:40:00,
2013-03-22 13:45:00,38.7,22.6,29.84,WNW,282,20.0,22.0,52,0.00,,---,0.00,VWS V14.01,2013-03-22 17:45:00,
2013-03-22 13:50:00,38.9,21.9,29.84,West,261,14.0,22.0,50,0.00,,---,0.00,VWS V14.01,2013-03-22 17:50:00,
2013-03-22 13:55:00,38.9,21.9,29.84,West,270,13.0,23.0,50,0.00,,---,0.00,VWS V14.01,2013-03-22 17:55:00,
2013-03-22 14:00:00,39.1,20.6,29.84,NW,304,9.0,23.0,47,0.00,,---,0.00,VWS V14.01,2013-03-22 18:00:00,
2013-03-22 14:05:00,39.3,20.8,29.83,WSW,250,15.0,19.0,47,0.00,,---,0.00,VWS V14.01,2013-03-22 18:05:00,
2013-03-22 14:10:00,39.2,21.7,29.83,WSW,246,15.0,24.0,49,0.00,,---,0.00,VWS V14.01,2013-03-22 18:10:00,
2013-03-22 14:15:00,39.0,21.0,29.83,West,272,17.0,24.0,48,0.00,,---,0.00,VWS V14.01,2013-03-22 18:15:00,
2013-03-22 14:20:00,39.1,22.0,29.83,WSW,238,12.0,24.0,50,0.00,,---,0.00,VWS V14.01,2013-03-22 18:20:00,
2013-03-22 14:25:00,39.1,22.5,29.83,West,262,13.0,24.0,51,0.00,,---,0.00,VWS V14.01,2013-03-22 18:25:00,
2013-03-22 14:30:00,39.2,21.2,29.83,WSW,240,16.0,27.0,48,0.00,,---,0.00,VWS V14.01,2013-03-22 18:30:00,
2013-03-22 14:35:00,39.9,21.8,29.83,WSW,250,19.0,24.0,48,0.00,,---,0.00,VWS V14.01,2013-03-22 18:35:00,
2013-03-22 14:40:00,40.5,22.4,29.83,SW,221,19.0,24.0,48,0.00,,---,0.00,VWS V14.01,2013-03-22 18:40:00,
2013-03-22 14:45:00,40.9,21.2,29.83,SW,234,18.0,27.0,45,0.00,,---,0.00,VWS V14.01,2013-03-22 18:45:00,
2013-03-22 14:50:00,40.8,20.6,29.83,SW,228,16.0,28.0,44,0.00,,---,0.00,VWS V14.01,2013-03-22 18:50:00,
2013-03-22 14:55:00,40.1,21.0,29.84,WNW,288,8.0,28.0,46,0.00,,---,0.00,VWS V14.01,2013-03-22 18:55:00,
2013-03-22 15:00:00,39.7,20.1,29.83,West,281,13.0,28.0,45,0.00,,---,0.00,VWS V14.01,2013-03-22 19:00:00,
2013-03-22 15:05:00,39.7,20.6,29.84,WSW,255,16.0,21.0,46,0.00,,---,0.00,VWS V14.01,2013-03-22 19:05:00,
2013-03-22 15:10:00,39.6,21.0,29.84,WNW,295,12.0,21.0,47,0.00,,---,0.00,VWS V14.01,2013-03-22 19:10:00,
2013-03-22 15:15:00,39.9,20.8,29.83,West,265,15.0,21.0,46,0.00,,---,0.00,VWS V14.01,2013-03-22 19:15:00,
2013-03-22 15:20:00,40.1,21.5,29.83,WNW,291,15.0,21.0,47,0.00,,---,0.00,VWS V14.01,2013-03-22 19:20:00,
2013-03-22 15:25:00,40.0,21.9,29.83,WNW,283,13.0,23.0,48,0.00,,---,0.00,VWS V14.01,2013-03-22 19:25:00,
2013-03-22 15:30:00,39.8,21.2,29.83,West,269,12.0,23.0,47,0.00,,---,0.00,VWS V14.01,2013-03-22 19:30:00,
2013-03-22 15:35:00,39.9,21.8,29.83,WSW,245,9.0,21.0,48,0.00,,---,0.00,VWS V14.01,2013-03-22 19:35:00,
2013-03-22 15:40:00,40.1,21.0,29.83,West,265,15.0,21.0,46,0.00,,---,0.00,VWS V14.01,2013-03-22 19:40:00,
2013-03-22 15:45:00,40.5,22.4,29.83,SW,229,16.0,21.0,48,0.00,,---,0.00,VWS V14.01,2013-03-22 19:45:00,
2013-03-22 15:50:00,40.3,21.2,29.83,WSW,248,13.0,21.0,46,0.00,,---,0.00,VWS V14.01,2013-03-22 19:50:00,
2013-03-22 15:55:00,40.2,21.6,29.83,WSW,249,9.0,21.0,47,0.00,,---,0.00,VWS V14.01,2013-03-22 19:55:00,
2013-03-22 16:00:00,40.4,22.3,29.83,NNW,333,7.0,21.0,48,0.00,,---,0.00,VWS V14.01,2013-03-22 20:00:00,
2013-03-22 16:05:00,40.5,22.9,29.83,West,274,8.0,17.0,49,0.00,,---,0.00,VWS V14.01,2013-03-22 20:05:00,
2013-03-22 16:10:00,40.1,22.0,29.83,SSW,212,10.0,19.0,48,0.00,,---,0.00,VWS V14.01,2013-03-22 20:10:00,
2013-03-22 16:15:00,40.5,22.9,29.83,NW,307,17.0,19.0,49,0.00,,---,0.00,VWS V14.01,2013-03-22 20:15:00,
2013-03-22 16:20:00,40.7,23.0,29.83,West,263,17.0,20.0,49,0.00,,---,0.00,VWS V14.01,2013-03-22 20:20:00,
2013-03-22 16:25:00,40.6,21.5,29.83,SW,224,15.0,20.0,46,0.00,,---,0.00,VWS V14.01,2013-03-22 20:25:00,
2013-03-22 16:30:00,40.5,20.9,29.83,WSW,244,17.0,21.0,45,0.00,,---,0.00,VWS V14.01,2013-03-22 20:30:00,
2013-03-22 16:35:00,40.7,20.5,29.83,WSW,248,18.0,21.0,44,0.00,,---,0.00,VWS V14.01,2013-03-22 20:35:00,
2013-03-22 16:40:00,40.7,21.5,29.83,West,262,10.0,21.0,46,0.00,,---,0.00,VWS V14.01,2013-03-22 20:40:00,
2013-03-22 16:45:00,40.6,20.9,29.84,WNW,283,16.0,21.0,45,0.00,,---,0.00,VWS V14.01,2013-03-22 20:45:00,
2013-03-22 16:50:00,40.7,21.5,29.84,West,273,16.0,24.0,46,0.00,,---,0.00,VWS V14.01,2013-03-22 20:50:00,
2013-03-22 16:55:00,40.9,21.7,29.84,West,266,15.0,24.0,46,0.00,,---,0.00,VWS V14.01,2013-03-22 20:55:00,
2013-03-22 17:00:00,40.8,21.6,29.84,West,274,7.0,9.0,46,0.00,,---,0.00,VWS V14.01,2013-03-22 21:00:00,
2013-03-22 17:05:00,40.7,21.5,29.84,West,261,12.0,19.0,46,0.00,,---,0.00,VWS V14.01,2013-03-22 21:05:00,
2013-03-22 17:10:00,40.6,21.5,29.84,WSW,254,9.0,19.0,46,0.00,,---,0.00,VWS V14.01,2013-03-22 21:10:00,
2013-03-22 17:15:00,40.7,22.1,29.84,West,269,9.0,19.0,47,0.00,,---,0.00,VWS V14.01,2013-03-22 21:15:00,
2013-03-22 17:20:00,40.9,21.7,29.83,WSW,247,8.0,27.0,46,0.00,,---,0.00,VWS V14.01,2013-03-22 21:20:00,
2013-03-22 17:25:00,41.1,21.9,29.84,West,281,10.0,27.0,46,0.00,,---,0.00,VWS V14.01,2013-03-22 21:25:00,
2013-03-22 17:30:00,41.3,22.6,29.84,WSW,252,13.0,13.0,47,0.00,,---,0.00,VWS V14.01,2013-03-22 21:30:00,
2013-03-22 17:35:00,41.4,21.7,29.84,NNW,333,6.0,21.0,45,0.00,,---,0.00,VWS V14.01,2013-03-22 21:35:00,
2013-03-22 17:40:00,41.3,22.1,29.84,West,272,15.0,21.0,46,0.00,,---,0.00,VWS V14.01,2013-03-22 21:40:00,
2013-03-22 17:45:00,41.1,21.9,29.84,West,259,13.0,21.0,46,0.00,,---,0.00,VWS V14.01,2013-03-22 21:45:00,
2013-03-22 17:50:00,40.9,22.2,29.84,West,262,16.0,21.0,47,0.00,,---,0.00,VWS V14.01,2013-03-22 21:50:00,
2013-03-22 17:55:00,40.9,21.2,29.85,West,281,12.0,21.0,45,0.00,,---,0.00,VWS V14.01,2013-03-22 21:55:00,
2013-03-22 18:00:00,41.0,22.8,29.85,West,263,11.0,14.0,48,0.00,,---,0.00,VWS V14.01,2013-03-22 22:00:00,
2013-03-22 18:05:00,41.2,22.5,29.85,WNW,296,5.0,15.0,47,0.00,,---,0.00,VWS V14.01,2013-03-22 22:05:00,
2013-03-22 18:10:00,41.2,22.5,29.85,West,261,11.0,21.0,47,0.00,,---,0.00,VWS V14.01,2013-03-22 22:10:00,
2013-03-22 18:15:00,41.2,22.0,29.85,SW,224,6.0,25.0,46,0.00,,---,0.00,VWS V14.01,2013-03-22 22:15:00,
2013-03-22 18:20:00,41.1,22.4,29.85,WSW,255,9.0,25.0,47,0.00,,---,0.00,VWS V14.01,2013-03-22 22:20:00,
2013-03-22 18:25:00,41.2,21.0,29.85,West,271,16.0,25.0,44,0.00,,---,0.00,VWS V14.01,2013-03-22 22:25:00,
2013-03-22 18:30:00,41.1,21.4,29.86,West,269,12.0,19.0,45,0.00,,---,0.00,VWS V14.01,2013-03-22 22:30:00,
2013-03-22 18:35:00,41.1,21.9,29.86,WNW,289,10.0,19.0,46,0.00,,---,0.00,VWS V14.01,2013-03-22 22:35:00,
2013-03-22 18:40:00,41.2,22.5,29.86,West,276,12.0,21.0,47,0.00,,---,0.00,VWS V14.01,2013-03-22 22:40:00,
2013-03-22 18:45:00,41.1,23.4,29.86,WNW,283,13.0,21.0,49,0.00,,---,0.00,VWS V14.01,2013-03-22 22:45:00,
2013-03-22 18:50:00,40.9,22.2,29.86,NNW,333,6.0,21.0,47,0.00,,---,0.00,VWS V14.01,2013-03-22 22:50:00,
2013-03-22 18:55:00,40.8,21.6,29.86,WSW,251,16.0,21.0,46,0.00,,---,0.00,VWS V14.01,2013-03-22 22:55:00,
2013-03-22 19:09:00,40.4,22.8,29.87,West,281,6.0,11.0,49,0.00,,---,0.00,VWS V14.01,2013-03-22 23:09:00,
2013-03-22 19:14:00,40.1,23.0,29.87,WNW,298,10.0,13.0,50,0.00,,---,0.00,VWS V14.01,2013-03-22 23:14:00,
2013-03-22 19:19:00,39.8,23.2,29.87,West,260,10.0,13.0,51,0.00,,---,0.00,VWS V14.01,2013-03-22 23:19:00,
2013-03-22 19:24:00,39.7,23.5,29.88,WNW,293,9.0,18.0,52,0.00,,---,0.00,VWS V14.01,2013-03-22 23:24:00,
2013-03-22 19:29:00,39.6,23.0,29.88,WNW,288,7.0,18.0,51,0.00,,---,0.00,VWS V14.01,2013-03-22 23:29:00,
2013-03-22 19:34:00,39.3,23.6,29.88,WSW,252,6.0,12.0,53,0.00,,---,0.00,VWS V14.01,2013-03-22 23:34:00,
2013-03-22 19:39:00,39.2,23.5,29.88,West,262,7.0,12.0,53,0.00,,---,0.00,VWS V14.01,2013-03-22 23:39:00,
2013-03-22 19:44:00,39.1,23.4,29.89,West,278,5.0,14.0,53,0.00,,---,0.00,VWS V14.01,2013-03-22 23:44:00,
2013-03-22 19:49:00,39.0,23.8,29.89,WSW,251,7.0,14.0,54,0.00,,---,0.00,VWS V14.01,2013-03-22 23:49:00,
2013-03-22 19:54:00,38.8,23.6,29.89,West,272,9.0,14.0,54,0.00,,---,0.00,VWS V14.01,2013-03-22 23:54:00,
2013-03-22 19:59:00,38.8,23.6,29.89,WSW,254,9.0,14.0,54,0.00,,---,0.00,VWS V14.01,2013-03-22 23:59:00,
2013-03-22 20:04:00,38.6,23.8,29.89,West,265,6.0,9.0,55,0.00,,---,0.00,VWS V14.01,2013-03-23 00:04:00,
2013-03-22 20:09:00,38.4,24.1,29.89,West,269,8.0,12.0,56,0.00,,---,0.00,VWS V14.01,2013-03-23 00:09:00,
2013-03-22 20:14:00,38.3,24.4,29.89,West,277,4.0,12.0,57,0.00,,---,0.00,VWS V14.01,2013-03-23 00:14:00,
2013-03-22 20:19:00,38.2,24.3,29.89,West,277,4.0,12.0,57,0.00,,---,0.00,VWS V14.01,2013-03-23 00:19:00,
2013-03-22 20:24:00,38.0,24.5,29.90,WSW,257,4.0,12.0,58,0.00,,---,0.00,VWS V14.01,2013-03-23 00:24:00,
2013-03-22 20:29:00,37.7,25.5,29.90,West,259,4.0,12.0,61,0.00,,---,0.00,VWS V14.01,2013-03-23 00:29:00,
2013-03-22 20:34:00,37.7,25.9,29.90,WSW,247,3.0,7.0,62,0.00,,---,0.00,VWS V14.01,2013-03-23 00:34:00,
2013-03-22 20:39:00,37.5,24.9,29.90,West,276,4.0,7.0,60,0.00,,---,0.00,VWS V14.01,2013-03-23 00:39:00,
2013-03-22 20:44:00,37.5,25.3,29.90,WSW,242,3.0,7.0,61,0.00,,---,0.00,VWS V14.01,2013-03-23 00:44:00,
2013-03-22 20:49:00,37.3,25.9,29.90,WNW,299,3.0,7.0,63,0.00,,---,0.00,VWS V14.01,2013-03-23 00:49:00,
2013-03-22 20:54:00,37.3,25.1,29.90,SW,228,5.0,13.0,61,0.00,,---,0.00,VWS V14.01,2013-03-23 00:54:00,
2013-03-22 20:59:00,37.4,24.4,29.90,West,274,7.0,13.0,59,0.00,,---,0.00,VWS V14.01,2013-03-23 00:59:00,
2013-03-22 21:04:00,37.4,24.0,29.91,West,259,10.0,11.0,58,0.00,,---,0.00,VWS V14.01,2013-03-23 01:04:00,
2013-03-22 21:09:00,37.3,23.9,29.91,West,266,5.0,11.0,58,0.00,,---,0.00,VWS V14.01,2013-03-23 01:09:00,
2013-03-22 21:14:00,37.1,24.1,29.91,SW,236,9.0,12.0,59,0.00,,---,0.00,VWS V14.01,2013-03-23 01:14:00,
2013-03-22 21:19:00,36.9,24.3,29.92,WSW,255,5.0,12.0,60,0.00,,---,0.00,VWS V14.01,2013-03-23 01:19:00,
2013-03-22 21:24:00,36.8,23.8,29.92,WNW,288,8.0,12.0,59,0.00,,---,0.00,VWS V14.01,2013-03-23 01:24:00,
2013-03-22 21:29:00,36.9,23.9,29.92,West,275,10.0,12.0,59,0.00,,---,0.00,VWS V14.01,2013-03-23 01:29:00,
2013-03-22 21:34:00,36.9,23.9,29.92,WNW,285,9.0,11.0,59,0.00,,---,0.00,VWS V14.01,2013-03-23 01:34:00,
2013-03-22 21:39:00,36.8,23.8,29.92,WSW,248,5.0,11.0,59,0.00,,---,0.00,VWS V14.01,2013-03-23 01:39:00,
2013-03-22 21:44:00,36.6,23.6,29.92,West,271,8.0,11.0,59,0.00,,---,0.00,VWS V14.01,2013-03-23 01:44:00,
2013-03-22 21:49:00,36.5,23.5,29.92,West,259,5.0,12.0,59,0.00,,---,0.00,VWS V14.01,2013-03-23 01:49:00,
2013-03-22 21:54:00,36.5,23.1,29.92,West,261,8.0,14.0,58,0.00,,---,0.00,VWS V14.01,2013-03-23 01:54:00,
2013-03-22 21:59:00,36.4,23.5,29.92,West,271,7.0,14.0,59,0.00,,---,0.00,VWS V14.01,2013-03-23 01:59:00,
2013-03-22 22:04:00,36.4,23.5,29.93,West,273,7.0,12.0,59,0.00,,---,0.00,VWS V14.01,2013-03-23 02:04:00,
2013-03-22 22:09:00,36.3,23.4,29.93,West,263,7.0,12.0,59,0.00,,---,0.00,VWS V14.01,2013-03-23 02:09:00,
2013-03-22 22:14:00,36.1,23.6,29.93,West,265,6.0,12.0,60,0.00,,---,0.00,VWS V14.01,2013-03-23 02:14:00,
2013-03-22 22:19:00,36.0,23.5,29.93,West,265,8.0,12.0,60,0.00,,---,0.00,VWS V14.01,2013-03-23 02:19:00,
2013-03-22 22:24:00,35.9,23.4,29.93,West,272,6.0,12.0,60,0.00,,---,0.00,VWS V14.01,2013-03-23 02:24:00,
2013-03-22 22:30:00,35.7,23.6,29.93,West,278,7.0,12.0,61,0.00,,---,0.00,VWS V14.01,2013-03-23 02:30:00,
2013-03-22 22:35:00,35.6,23.5,29.93,West,264,11.0,11.0,61,0.00,,---,0.00,VWS V14.01,2013-03-23 02:35:00,
2013-03-22 22:40:00,35.5,23.4,29.93,NNW,335,5.0,12.0,61,0.00,,---,0.00,VWS V14.01,2013-03-23 02:40:00,
2013-03-22 22:45:00,35.4,23.3,29.93,West,276,9.0,12.0,61,0.00,,---,0.00,VWS V14.01,2013-03-23 02:45:00,
2013-03-22 22:50:00,35.3,23.2,29.93,WSW,256,6.0,12.0,61,0.00,,---,0.00,VWS V14.01,2013-03-23 02:50:00,
2013-03-22 22:55:00,35.1,23.4,29.93,WSW,249,4.0,12.0,62,0.00,,---,0.00,VWS V14.01,2013-03-23 02:55:00,
2013-03-22 23:00:00,35.0,24.4,29.93,NW,309,8.0,12.0,65,0.00,,---,0.00,VWS V14.01,2013-03-23 03:00:00,
2013-03-22 23:05:00,34.8,24.6,29.93,WSW,249,8.0,9.0,66,0.00,,---,0.00,VWS V14.01,2013-03-23 03:05:00,
2013-03-22 23:10:00,34.7,24.5,29.93,SW,219,7.0,11.0,66,0.00,,---,0.00,VWS V14.01,2013-03-23 03:10:00,
2013-03-22 23:15:00,35.0,23.7,29.93,West,266,8.0,12.0,63,0.00,,---,0.00,VWS V14.01,2013-03-23 03:15:00,
2013-03-22 23:20:00,35.1,23.4,29.93,West,269,9.0,14.0,62,0.00,,---,0.00,VWS V14.01,2013-03-23 03:20:00,
2013-03-22 23:25:00,34.9,23.2,29.93,WNW,293,7.0,14.0,62,0.00,,---,0.00,VWS V14.01,2013-03-23 03:25:00,
2013-03-22 23:30:00,34.7,23.4,29.93,WNW,285,8.0,14.0,63,0.00,,---,0.00,VWS V14.01,2013-03-23 03:30:00,
2013-03-22 23:35:00,34.5,23.2,29.93,West,268,8.0,11.0,63,0.00,,---,0.00,VWS V14.01,2013-03-23 03:35:00,
2013-03-22 23:40:00,34.4,23.9,29.93,SW,229,7.0,12.0,65,0.00,,---,0.00,VWS V14.01,2013-03-23 03:40:00,
2013-03-22 23:45:00,34.3,24.5,29.94,WNW,283,3.0,12.0,67,0.00,,---,0.00,VWS V14.01,2013-03-23 03:45:00,
2013-03-22 23:50:00,34.2,24.0,29.94,WSW,257,9.0,12.0,66,0.00,,---,0.00,VWS V14.01,2013-03-23 03:50:00,
2013-03-22 23:55:00,34.5,23.6,29.94,WNW,300,6.0,14.0,64,0.00,,---,0.00,VWS V14.01,2013-03-23 03:55:00,